Home   Weather   Pickering   Past weeks

Flag for Canada Past Weather in Pickering, Ontario, Canada — Yesterday and Last 2 Weeks

39 °F


Feels Like: 39 °F
Forecast: 29 / 42 °F
Wind: 2 mph from North

Location: Toronto Buttonville

Current Time: Oct 26, 2016 at 3:22:17 PM

Latest Report: Oct 26, 2016 at 2:00 PM

Visibility: 15 mi

Pressure: 30.48 "Hg

Humidity: 45%

Dew Point: 19 °F

Location of PickeringLocation

Past Weather in Pickering — Graph


Pickering Temperature Yesterday

Maximum temperature yesterday: 45 °F (at 1:00 PM)
Minimum temperature yesterday: 37 °F (at 7:00 AM)
Average temperature yesterday: 40 °F

High & Low Weather Summary for the Past Weeks

High75 °F (Oct 18, 12:00 PM)100% (Oct 17, 3:50 AM)30.53 "Hg (Oct 17, 3:50 AM)
Low30 °F (Oct 26, 6:00 AM)43% (Oct 19, 3:00 PM)29.54 "Hg (Oct 18, 2:00 PM)
Average52 °F75%30.04 "Hg
* Reported Oct 11 2:00 PM — Oct 26 2:00 PM, Pickering, Weather by CustomWeather, © 2016

Note: Actual official high and low records may vary slightly from our data, if they occured in-between our weather recording intervals... More about our weather records


Pickering Weather History for the Previous 24 Hours

Scroll right to see more
Time TempWeatherWind HumidityBarometerVisibility
2:00 PM
Wed, Oct 26
39 °FOvercast.2 mph45%30.48 "Hg15 mi
1:00 PM39 °FPartly sunny.3 mph48%30.50 "Hg15 mi
12:00 PM37 °FPartly sunny.6 mph52%30.52 "Hg15 mi
11:00 AM37 °FBroken clouds.7 mph52%30.52 "Hg15 mi
10:00 AM36 °FPartly sunny.7 mph52%30.53 "Hg15 mi
9:00 AM34 °FScattered clouds.3 mph60%30.53 "Hg15 mi
8:00 AM30 °FScattered clouds.No wind69%30.52 "Hg15 mi
7:00 AM30 °FPassing clouds.3 mph75%30.51 "Hg15 mi
6:00 AM30 °FPassing clouds.5 mph75%30.50 "Hg15 mi
5:00 AM32 °FPassing clouds.3 mph69%30.48 "Hg15 mi
4:00 AM34 °FChilly.2 mph70%30.47 "Hg15 mi
3:00 AM36 °FChilly.2 mph60%30.46 "Hg15 mi
2:00 AM36 °FPassing clouds.No wind65%30.46 "Hg15 mi
1:00 AM36 °FPassing clouds.3 mph60%30.46 "Hg15 mi
12:00 AM37 °FPassing clouds.3 mph56%30.46 "Hg15 mi
11:00 PM
Tue, Oct 25
37 °FPassing clouds.3 mph56%30.45 "Hg15 mi
10:00 PM37 °FPassing clouds.3 mph60%30.45 "Hg15 mi
9:00 PM37 °FPassing clouds.5 mph60%30.44 "Hg15 mi
8:00 PM39 °FPassing clouds.6 mph56%30.43 "Hg15 mi
7:00 PM37 °FPassing clouds.8 mph60%30.41 "Hg15 mi
6:00 PM39 °FScattered clouds.12 mph56%30.39 "Hg15 mi
5:00 PM41 °FScattered clouds.17 mph53%30.38 "Hg15 mi
4:00 PM43 °FScattered clouds.16 mph53%30.36 "Hg15 mi
3:00 PM45 °FPartly sunny.14 mph53%30.36 "Hg15 mi
Weather by CustomWeather, © 2016

See weather overviewHow to use our weather pages